Reno - Stead, NV

10:09 AM PST on November 20, 2017 (GMT -0800)
Reno - Stead

Weather History for KRTS - March, 2013

Change the Weather History Date:

Friday, March 29, 2013

  Actual Average (KRNO) Record (KRNO)
Temperature  
Mean Temperature 45 °F -  
Max Temperature 64 °F 59 °F 78 °F (1966)
Min Temperature 26 °F 29 °F -3 °F (1897)
Degree Days  
Heating Degree Days 20    
Moisture  
Dew Point 29 °F    
Average Humidity 57    
Maximum Humidity 100    
Minimum Humidity 22    
Precipitation  
Precipitation 0.00 in - - ()
Sea Level Pressure  
Sea Level Pressure 30.20 in    
Wind  
Wind Speed 4 mph (NNE)    
Max Wind Speed 20 mph    
Max Gust Speed 29 mph    
Visibility 10 miles    
Events Rain    
Averages and records for this station are not official NWS values.
T = Trace of Precipitation, MM = Missing Value Source: NWS Daily Summary

Daily Weather History Graph

Daily Weather History Graph

Search for Another Location

Airport or City:

Trip Planner

Search our weather history database for the weather conditions in past years. The results will help you decide how hot, cold, wet, or windy it might be!

Date:

Astronomy

Mar. 29, 2013 Rise Set
Actual Time 6:47 AM PDT 7:20 PM PDT
Civil Twilight 6:20 AM PDT 7:48 PM PDT
Nautical Twilight 5:48 AM PDT 8:20 PM PDT
Astronomical Twilight 5:16 AM PDT 8:52 PM PDT
Moon 10:26 PM PDT (3/29) 8:01 AM PDT (3/29)
Length of Visible Light 13h 27m
Length of Day
12h 33m
Waning Gibbous, 93% of the Moon is Illuminated
Mar 29
Waning Gibbous
Apr 2
Last Quarter
Apr 10
New
Apr 18
First Quarter
Apr 25
Full

Hourly Weather History & Observations

Time (PDT) Temp. Windchill Dew Point Humidity Pressure Visibility Wind Dir Wind Speed Gust Speed Precip Events Conditions
12:15 AM 37.4 °F 33.8 °F 32.0 °F 81% 30.19 in 10.0 mi NW 4.6 mph - N/A   Clear
12:35 AM 35.6 °F - 32.0 °F 87% 30.19 in 10.0 mi Calm Calm - N/A   Clear
12:55 AM 32.0 °F 27.5 °F 30.2 °F 93% 30.20 in 10.0 mi NNW 4.6 mph - N/A   Clear
1:15 AM 32.0 °F - 28.4 °F 87% 30.19 in 10.0 mi Calm Calm - N/A   Clear
1:35 AM 32.0 °F 26.4 °F 30.2 °F 93% 30.19 in 10.0 mi NNW 5.8 mph - N/A   Clear
1:55 AM 32.0 °F 26.4 °F 28.4 °F 87% 30.19 in 10.0 mi NW 5.8 mph - N/A   Clear
2:15 AM 30.2 °F - 26.6 °F 86% 30.20 in 10.0 mi Calm Calm - N/A   Clear
2:35 AM 32.0 °F - 28.4 °F 87% 30.20 in 10.0 mi Calm Calm - N/A   Clear
2:55 AM 30.2 °F 25.4 °F 28.4 °F 93% 30.20 in 10.0 mi NNW 4.6 mph - N/A   Clear
3:15 AM 28.4 °F 24.6 °F 26.6 °F 93% 30.20 in 10.0 mi NNW 3.5 mph - N/A   Clear
3:35 AM 28.4 °F - 24.8 °F 86% 30.20 in 10.0 mi Calm Calm - N/A   Clear
3:55 AM 28.4 °F 20.4 °F 26.6 °F 93% 30.20 in 10.0 mi North 8.1 mph - N/A   Clear
4:15 AM 28.4 °F 23.3 °F 26.6 °F 93% 30.20 in 10.0 mi NNW 4.6 mph - N/A   Clear
4:35 AM 26.6 °F 20.0 °F 26.6 °F 100% 30.20 in 10.0 mi North 5.8 mph - N/A   Clear
4:55 AM 26.6 °F - 24.8 °F 93% 30.20 in 10.0 mi Calm Calm - N/A   Clear
5:15 AM 26.6 °F - 24.8 °F 93% 30.21 in 10.0 mi Calm Calm - N/A   Clear
5:35 AM 28.4 °F - 24.8 °F 86% 30.21 in 10.0 mi Calm Calm - N/A   Clear
5:55 AM 26.6 °F 21.2 °F 24.8 °F 93% 30.21 in 10.0 mi NW 4.6 mph - N/A   Clear
6:15 AM 26.6 °F 21.2 °F 23.0 °F 86% 30.22 in 10.0 mi North 4.6 mph - N/A   Clear
6:35 AM 28.4 °F 24.6 °F 26.6 °F 93% 30.22 in 10.0 mi NNW 3.5 mph - N/A   Clear
6:55 AM 28.4 °F - 26.6 °F 93% 30.23 in 10.0 mi Calm Calm - N/A   Clear
7:15 AM 28.4 °F - 26.6 °F 93% 30.23 in 10.0 mi Calm Calm - N/A   Clear
7:35 AM 26.6 °F - 24.8 °F 93% 30.24 in 10.0 mi Calm Calm - N/A   Clear
7:55 AM 32.0 °F - 28.4 °F 87% 30.24 in 10.0 mi Calm Calm - N/A   Clear
8:15 AM 35.6 °F - 32.0 °F 87% 30.24 in 10.0 mi Calm Calm - N/A   Clear
8:35 AM 37.4 °F - 32.0 °F 81% 30.24 in 10.0 mi Calm Calm - N/A   Clear
8:55 AM 39.2 °F - 32.0 °F 75% 30.24 in 10.0 mi Calm Calm - N/A   Clear
9:15 AM 41.0 °F - 32.0 °F 70% 30.24 in 10.0 mi Calm Calm - N/A   Clear
9:35 AM 44.6 °F - 32.0 °F 61% 30.24 in 10.0 mi Calm Calm - N/A   Clear
9:55 AM 46.4 °F - 33.8 °F 62% 30.24 in 10.0 mi Calm Calm - N/A   Clear
10:15 AM 48.2 °F - 35.6 °F 62% 30.24 in 10.0 mi South 3.5 mph - N/A   Clear
10:35 AM 50.0 °F - 33.8 °F 54% 30.24 in 10.0 mi SE 5.8 mph - N/A   Clear
10:55 AM 51.8 °F - 33.8 °F 50% 30.24 in 10.0 mi ESE 6.9 mph - N/A   Clear
11:15 AM 53.6 °F - 33.8 °F 47% 30.24 in 10.0 mi ESE 4.6 mph - N/A   Clear
11:35 AM 55.4 °F - 32.0 °F 41% 30.23 in 10.0 mi SE 6.9 mph 17.3 mph N/A   Clear
11:55 AM 57.2 °F - 32.0 °F 38% 30.23 in 10.0 mi SSE 10.4 mph - N/A   Clear
12:15 PM 57.2 °F - 32.0 °F 38% 30.22 in 10.0 mi SE 9.2 mph - N/A   Clear
12:35 PM 57.2 °F - 32.0 °F 38% 30.21 in 10.0 mi SE 11.5 mph 17.3 mph N/A   Clear
12:55 PM 59.0 °F - 32.0 °F 36% 30.21 in 10.0 mi SE 10.4 mph 16.1 mph N/A   Clear
1:15 PM 59.0 °F - 32.0 °F 36% 30.20 in 10.0 mi ESE 11.5 mph - N/A   Clear
1:35 PM 59.0 °F - 32.0 °F 36% 30.20 in 10.0 mi SE 9.2 mph - N/A   Clear
1:55 PM 60.8 °F - 32.0 °F 34% 30.19 in 10.0 mi ESE 9.2 mph - N/A   Clear
2:15 PM 62.6 °F - 30.2 °F 30% 30.19 in 10.0 mi East 6.9 mph 16.1 mph N/A   Clear
2:35 PM 62.6 °F - 30.2 °F 30% 30.18 in 10.0 mi SE 6.9 mph - N/A   Clear
2:55 PM 62.6 °F - 30.2 °F 30% 30.17 in 10.0 mi ESE 6.9 mph - N/A   Clear
3:15 PM 62.6 °F - 30.2 °F 30% 30.16 in 10.0 mi SE 9.2 mph - N/A   Partly Cloudy
3:35 PM 64.4 °F - 28.4 °F 26% 30.16 in 10.0 mi SE 8.1 mph 17.3 mph N/A   Partly Cloudy
3:55 PM 62.6 °F - 28.4 °F 27% 30.15 in 10.0 mi ESE 9.2 mph - N/A   Clear
4:15 PM 64.4 °F - 26.6 °F 24% 30.15 in 10.0 mi SE 3.5 mph - N/A   Clear
4:35 PM 64.4 °F - 24.8 °F 22% 30.14 in 10.0 mi SSE 5.8 mph - N/A   Clear
4:55 PM 62.6 °F - 26.6 °F 26% 30.14 in 10.0 mi East 4.6 mph - N/A   Clear
5:15 PM 62.6 °F - 24.8 °F 24% 30.14 in 10.0 mi Calm Calm - N/A   Partly Cloudy
5:35 PM 64.4 °F - 26.6 °F 24% 30.14 in 10.0 mi WSW 4.6 mph - N/A   Mostly Cloudy
5:55 PM 62.6 °F - 26.6 °F 26% 30.14 in 10.0 mi Calm Calm - N/A Rain Light Rain
6:15 PM 62.6 °F - 24.8 °F 24% 30.14 in 10.0 mi NNE 5.8 mph - N/A   Clear
6:35 PM 62.6 °F - 26.6 °F 26% 30.14 in 10.0 mi NW 3.5 mph - N/A   Partly Cloudy
6:55 PM 60.8 °F - 26.6 °F 27% 30.15 in 10.0 mi WNW 3.5 mph - N/A   Mostly Cloudy
7:15 PM 59.0 °F - 26.6 °F 29% 30.15 in 10.0 mi SW 19.6 mph 28.8 mph N/A   Overcast
7:35 PM 59.0 °F - 24.8 °F 27% 30.15 in 10.0 mi SSW 19.6 mph 26.5 mph N/A   Overcast
7:55 PM 59.0 °F - 24.8 °F 27% 30.15 in 10.0 mi NW 8.1 mph - N/A   Overcast
8:15 PM 57.2 °F - 28.4 °F 33% 30.16 in 10.0 mi NNW 8.1 mph - N/A   Mostly Cloudy
8:35 PM 55.4 °F - 28.4 °F 36% 30.17 in 10.0 mi NNW 4.6 mph - N/A   Scattered Clouds
8:55 PM 53.6 °F - 28.4 °F 38% 30.19 in 10.0 mi Calm Calm - N/A   Partly Cloudy
9:15 PM 55.4 °F - 28.4 °F 36% 30.19 in 10.0 mi North - - N/A   Partly Cloudy
9:35 PM 50.0 °F - 28.4 °F 43% 30.20 in 10.0 mi WNW 6.9 mph - N/A   Clear
9:55 PM 44.6 °F 41.4 °F 26.6 °F 49% 30.20 in 10.0 mi NNW 5.8 mph - N/A   Clear
10:15 PM 44.6 °F 42.2 °F 26.6 °F 49% 30.21 in 10.0 mi NNW 4.6 mph - N/A   Clear
10:35 PM 44.6 °F 39.7 °F 26.6 °F 49% 30.21 in 10.0 mi North 9.2 mph - N/A   Clear
10:55 PM 44.6 °F 40.2 °F 26.6 °F 49% 30.21 in 10.0 mi North 8.1 mph - N/A   Clear
11:15 PM 44.6 °F 40.7 °F 26.6 °F 49% 30.21 in 10.0 mi North 6.9 mph - N/A   Clear
11:35 PM 42.8 °F 38.6 °F 26.6 °F 53% 30.21 in 10.0 mi NNW 6.9 mph - N/A   Clear
11:55 PM 39.2 °F 33.6 °F 26.6 °F 61% 30.21 in 10.0 mi North 8.1 mph - N/A   Clear